Time,TemperatureF,DewpointF,PressureIn,WindDirection,WindDirectionDegrees,WindSpeedMPH,WindSpeedGustMPH,Humidity,HourlyPrecipIn,Conditions,Clouds,dailyrainin,SolarRadiationWatts/m^2,SoftwareType,DateUTC
2013-03-22 00:00:00,25.1,18.0,30.03,West,264,0.0,-999.0,75,-99.99,,,0.00,0,weatherlink.com 1.10,2013-03-22 04:00:00,
2013-03-22 00:15:00,24.9,18.0,30.04,NW,326,2.0,-999.0,76,-99.99,,,0.00,0,weatherlink.com 1.10,2013-03-22 04:15:00,
2013-03-22 00:30:00,24.9,19.0,30.04,NW,326,0.0,-999.0,77,-99.99,,,0.00,0,weatherlink.com 1.10,2013-03-22 04:30:00,
2013-03-22 00:45:00,24.7,18.0,30.04,NW,326,0.0,-999.0,76,-99.99,,,0.00,0,weatherlink.com 1.10,2013-03-22 04:45:00,
2013-03-22 01:00:00,24.7,18.0,30.04,NW,326,0.0,-999.0,75,-99.99,,,0.00,0,weatherlink.com 1.10,2013-03-22 05:00:00,
2013-03-22 01:15:00,24.5,18.0,30.04,NW,324,0.0,-999.0,75,-99.99,,,0.00,0,weatherlink.com 1.10,2013-03-22 05:15:00,
2013-03-22 01:30:00,24.2,17.0,30.05,NW,324,0.0,-999.0,75,-99.99,,,0.00,0,weatherlink.com 1.10,2013-03-22 05:30:00,
2013-03-22 01:45:00,23.9,17.0,30.05,NW,324,0.0,-999.0,76,-99.99,,,0.00,0,weatherlink.com 1.10,2013-03-22 05:45:00,
2013-03-22 02:00:00,23.5,17.0,30.04,NW,324,0.0,-999.0,76,-99.99,,,0.00,0,weatherlink.com 1.10,2013-03-22 06:00:00,
2013-03-22 02:15:00,23.6,17.0,30.04,NW,322,0.0,-999.0,76,-99.99,,,0.00,0,weatherlink.com 1.10,2013-03-22 06:15:00,
2013-03-22 02:30:00,23.0,17.0,30.05,NW,322,0.0,-999.0,78,-99.99,,,0.00,0,weatherlink.com 1.10,2013-03-22 06:30:00,
2013-03-22 02:46:00,23.1,17.0,30.04,NW,322,0.0,-999.0,77,-99.99,,,0.00,0,weatherlink.com 1.10,2013-03-22 06:46:00,
2013-03-22 03:00:00,22.4,17.0,30.04,WSW,249,2.0,-999.0,81,-99.99,,,0.00,0,weatherlink.com 1.10,2013-03-22 07:00:00,
2013-03-22 03:15:00,22.0,17.0,30.05,WSW,249,0.0,-999.0,82,-99.99,,,0.00,0,weatherlink.com 1.10,2013-03-22 07:15:00,
2013-03-22 03:30:00,21.7,18.0,30.05,WSW,249,1.0,-999.0,84,-99.99,,,0.00,0,weatherlink.com 1.10,2013-03-22 07:30:00,
2013-03-22 03:46:00,21.4,18.0,30.05,WSW,249,2.0,-999.0,86,-99.99,,,0.00,0,weatherlink.com 1.10,2013-03-22 07:46:00,
2013-03-22 04:00:00,21.3,18.0,30.05,WSW,249,0.0,-999.0,85,-99.99,,,0.00,0,weatherlink.com 1.10,2013-03-22 08:00:00,
2013-03-22 04:16:00,21.4,17.0,30.04,WSW,249,0.0,-999.0,83,-99.99,,,0.00,0,weatherlink.com 1.10,2013-03-22 08:16:00,
2013-03-22 04:30:00,20.7,17.0,30.04,WSW,249,0.0,-999.0,87,-99.99,,,0.00,0,weatherlink.com 1.10,2013-03-22 08:30:00,
2013-03-22 04:45:00,20.5,17.0,30.04,WSW,249,0.0,-999.0,87,-99.99,,,0.00,0,weatherlink.com 1.10,2013-03-22 08:45:00,
2013-03-22 05:01:00,20.7,17.0,30.04,WSW,249,0.0,-999.0,85,-99.99,,,0.00,0,weatherlink.com 1.10,2013-03-22 09:01:00,
2013-03-22 07:31:00,20.3,17.0,30.06,WSW,247,0.0,-999.0,86,-99.99,,,0.00,0,weatherlink.com 1.10,2013-03-22 11:31:00,
2013-03-22 08:16:00,20.1,17.0,30.06,WSW,253,0.0,-999.0,86,-99.99,,,0.00,21,weatherlink.com 1.10,2013-03-22 12:16:00,
2013-03-22 08:31:00,21.0,18.0,30.07,SSW,204,2.0,-999.0,88,-99.99,,,0.00,46,weatherlink.com 1.10,2013-03-22 12:31:00,
2013-03-22 09:01:00,23.5,19.0,30.06,SW,233,1.0,-999.0,83,-99.99,,,0.00,125,weatherlink.com 1.10,2013-03-22 13:01:00,
2013-03-22 09:46:00,26.1,20.0,30.06,WSW,245,3.0,-999.0,79,-99.99,,,0.00,195,weatherlink.com 1.10,2013-03-22 13:46:00,
2013-03-22 10:01:00,27.0,21.0,30.06,WSW,242,3.0,-999.0,78,-99.99,,,0.00,128,weatherlink.com 1.10,2013-03-22 14:01:00,
2013-03-22 10:46:00,29.6,21.0,30.06,West,269,7.0,-999.0,70,-99.99,,,0.00,489,weatherlink.com 1.10,2013-03-22 14:46:00,
2013-03-22 12:01:00,33.2,20.0,30.06,NW,304,3.0,-999.0,59,-99.99,,,0.00,664,weatherlink.com 1.10,2013-03-22 16:01:00,
2013-03-22 13:31:00,35.6,18.0,30.05,SW,217,8.0,-999.0,49,-99.99,,,0.00,784,weatherlink.com 1.10,2013-03-22 17:31:00,
2013-03-22 14:46:00,38.2,19.0,30.03,SW,228,14.0,-999.0,47,-99.99,,,0.00,779,weatherlink.com 1.10,2013-03-22 18:46:00,
2013-03-22 15:01:00,38.3,18.0,30.03,WSW,246,3.0,-999.0,44,-99.99,,,0.00,761,weatherlink.com 1.10,2013-03-22 19:01:00,
2013-03-22 15:16:00,39.4,20.0,30.02,SW,232,7.0,-999.0,45,-99.99,,,0.00,751,weatherlink.com 1.10,2013-03-22 19:16:00,
2013-03-22 15:31:00,39.8,20.0,30.02,WSW,256,10.0,-999.0,45,-99.99,,,0.00,694,weatherlink.com 1.10,2013-03-22 19:31:00,
2013-03-22 15:46:00,40.3,19.0,30.01,WSW,257,7.0,-999.0,43,-99.99,,,0.00,673,weatherlink.com 1.10,2013-03-22 19:46:00,
2013-03-22 16:01:00,39.9,19.0,30.00,NW,326,4.0,-999.0,44,-99.99,,,0.00,687,weatherlink.com 1.10,2013-03-22 20:01:00,
2013-03-22 16:31:00,40.6,20.0,30.00,NW,315,6.0,-999.0,43,-99.99,,,0.00,608,weatherlink.com 1.10,2013-03-22 20:31:00,
2013-03-22 16:46:00,40.6,19.0,30.00,West,260,9.0,-999.0,42,-99.99,,,0.00,578,weatherlink.com 1.10,2013-03-22 20:46:00,
2013-03-22 17:01:00,40.9,20.0,29.99,West,276,11.0,-999.0,44,-99.99,,,0.00,513,weatherlink.com 1.10,2013-03-22 21:01:00,
2013-03-22 17:16:00,41.1,20.0,30.00,NW,304,4.0,-999.0,43,-99.99,,,0.00,480,weatherlink.com 1.10,2013-03-22 21:16:00,
2013-03-22 17:31:00,41.3,20.0,30.00,NNW,333,11.0,-999.0,42,-99.99,,,0.00,441,weatherlink.com 1.10,2013-03-22 21:31:00,
2013-03-22 18:16:00,41.3,19.0,30.01,SW,214,6.0,-999.0,41,-99.99,,,0.00,295,weatherlink.com 1.10,2013-03-22 22:16:00,
2013-03-22 18:31:00,41.1,19.0,30.01,WNW,282,2.0,-999.0,42,-99.99,,,0.00,243,weatherlink.com 1.10,2013-03-22 22:31:00,
2013-03-22 19:00:00,40.6,18.0,30.01,WNW,285,7.0,-999.0,41,-99.99,,,0.00,132,weatherlink.com 1.10,2013-03-22 23:00:00,
2013-03-22 19:15:00,40.3,19.0,30.02,SW,230,6.0,-999.0,42,-99.99,,,0.00,79,weatherlink.com 1.10,2013-03-22 23:15:00,
2013-03-22 19:30:00,39.9,19.0,30.02,West,270,3.0,-999.0,44,-99.99,,,0.00,39,weatherlink.com 1.10,2013-03-22 23:30:00,
2013-03-22 19:45:00,39.2,19.0,30.02,WSW,243,3.0,-999.0,45,-99.99,,,0.00,12,weatherlink.com 1.10,2013-03-22 23:45:00,
2013-03-22 20:00:00,38.3,19.0,30.03,WSW,250,4.0,-999.0,46,-99.99,,,0.00,0,weatherlink.com 1.10,2013-03-23 00:00:00,
2013-03-22 20:15:00,37.7,19.0,30.03,WSW,257,2.0,-999.0,47,-99.99,,,0.00,0,weatherlink.com 1.10,2013-03-23 00:15:00,
2013-03-22 20:30:00,37.2,18.0,30.04,WSW,249,1.0,-999.0,47,-99.99,,,0.00,0,weatherlink.com 1.10,2013-03-23 00:30:00,
2013-03-22 20:45:00,36.8,18.0,30.04,WSW,254,2.0,-999.0,47,-99.99,,,0.00,0,weatherlink.com 1.10,2013-03-23 00:45:00,
2013-03-22 21:00:00,36.0,18.0,30.03,WSW,241,2.0,-999.0,49,-99.99,,,0.00,0,weatherlink.com 1.10,2013-03-23 01:00:00,
2013-03-22 21:15:00,35.5,18.0,30.03,WSW,246,2.0,-999.0,50,-99.99,,,0.00,0,weatherlink.com 1.10,2013-03-23 01:15:00,
2013-03-22 21:30:00,35.6,18.0,30.03,WSW,250,1.0,-999.0,49,-99.99,,,0.00,0,weatherlink.com 1.10,2013-03-23 01:30:00,
2013-03-22 21:45:00,34.4,20.0,30.03,North,4,4.0,-999.0,57,-99.99,,,0.00,0,weatherlink.com 1.10,2013-03-23 01:45:00,
2013-03-22 22:00:00,32.9,21.0,30.04,NNE,22,1.0,-999.0,63,-99.99,,,0.00,0,weatherlink.com 1.10,2013-03-23 02:00:00,
2013-03-22 22:15:00,32.4,21.0,30.04,North,10,2.0,-999.0,63,-99.99,,,0.00,0,weatherlink.com 1.10,2013-03-23 02:15:00,
2013-03-22 22:30:00,32.0,20.0,30.04,North,9,0.0,-999.0,62,-99.99,,,0.00,0,weatherlink.com 1.10,2013-03-23 02:30:00,
2013-03-22 22:45:00,31.5,21.0,30.05,North,9,0.0,-999.0,64,-99.99,,,0.00,0,weatherlink.com 1.10,2013-03-23 02:45:00,
2013-03-22 23:00:00,30.9,20.0,30.05,North,9,0.0,-999.0,65,-99.99,,,0.00,0,weatherlink.com 1.10,2013-03-23 03:00:00,
2013-03-22 23:15:00,31.0,20.0,30.05,North,9,0.0,-999.0,63,-99.99,,,0.00,0,weatherlink.com 1.10,2013-03-23 03:15:00,
2013-03-22 23:30:00,30.7,19.0,30.06,North,9,0.0,-999.0,62,-99.99,,,0.00,0,weatherlink.com 1.10,2013-03-23 03:30:00,
2013-03-22 23:45:00,30.4,20.0,30.06,North,9,0.0,-999.0,66,-99.99,,,0.00,0,weatherlink.com 1.10,2013-03-23 03:45:00,